Temp
14 15 15 15 15 15 15 15 15 15 15 15 15 15 15 15 13 14 15 13 15 16 16 15 15 16 16 16 16 16 15 16 18 18 17 17 17 16 16 16 17 17 16 14 14
14 15 15 15 15 15 15 15 15 15 15 15 15 15 15 15 14 15 14 14 15 16 16 15 16 16 17 17 17 17 16 16 17 17 16 17 16 16 16 17 18 17 16 15 14
14 15 15 15 15 15 15 15 15 15 15 15 15 15 15 15 15 12 14 15 15 16 16 16 15 16 18 17 16 17 16 17 16 15 15 16 17 16 16 16 16 16 16 15 14
14 15 15 15 15 15 15 15 15 15 15 15 15 15 15 15 15 14 15 15 16 16 15 15 17 18 18 17 17 16 16 17 16 14 15 15 15 16 17 16 15 15 15 14 14
14 15 15 15 15 15 15 15 15 15 15 15 15 15 15 15 12 14 14 16 16 15 15 15 16 17 18 17 18 16 16 16 14 14 14 14 15 15 15 16 15 14 14 14 14
15 15 15 15 15 15 15 15 15 15 15 15 15 15 15 13 14 14 15 15 15 16 15 16 14 15 17 16 16 16 16 15 15 15 15 14 14 15 16 16 15 14 15 15 14
15 15 15 15 15 15 15 15 15 15 15 15 15 15 16 13 14 14 14 15 15 15 15 15 15 15 15 16 15 15 15 15 15 15 15 14 13 14 15 15 15 14 14 14 14
15 15 15 15 15 15 15 16 15 15 15 15 15 15 13 14 14 14 14 13 14 15 15 15 15 14 14 14 15 15 16 15 15 15 14 14 14 15 15 15 15 15 15 14 14
15 15 15 15 15 15 15 15 15 15 15 15 15 15 13 14 13 13 14 14 15 15 15 15 15 15 15 15 15 16 15 17 14 14 14 15 13 15 15 15 15 15 15 15 14
15 15 15 15 16 16 15 15 15 15 15 15 14 15 13 12 13 13 14 14 14 14 14 14 15 15 14 12 11 13 14 15 15 13 13 12 12 15 15 14 14 14 15 15 13
14 15 15 15 15 16 15 15 14 14 14 11 11 13 12 13 13 13 14 14 14 15 14 15 13 11 12 12 13 13 13 13 15 12 11 12 12 14 14 13 14 14 14 15 11
14 14 15 15 15 15 15 14 12 12 12 12 12 12 12 12 13 13 14 14 15 14 15 14 12 12 12 13 13 13 12 13 14 13 12 12 11 12 13 13 14 14 14 12 12
14 14 14 15 14 15 14 13 12 12 13 13 13 12 12 12 12 12 13 13 13 14 12 12 12 12 13 12 12 13 13 11 11 11 12 11 11 11 12 12 12 12 12 11 11
13 13 14 15 14 13 13 12 12 12 13 13 14 13 12 12 13 12 12 11 14 12 12 13 12 12 12 13 12 11 11 10 10 9 9 13 8 12 11 11 11 11 10 10 9
13 13 14 14 13 12 11 11 12 12 13 14 13 13 13 13 12 12 12 12 12 12 12 12 11 11 12 11 11 11 10 9 9 9 9 11 9 11 11 10 10 10 10 9 8
13 13 13 13 13 12 12 12 11 13 12 14 13 13 14 14 13 13 13 12 12 12 13 11 10 11 10 11 11 10 9 10 10 8 6 11 9 10 11 10 10 10 10 8 7
13 13 13 13 12 12 12 12 12 11 14 13 12 12 12 12 14 13 13 11 9 8 10 12 11 10 10 10 10 10 8 7 7 6 8 10 7 9 9 8 8 8 8 7 7
13 13 13 13 13 13 12 11 11 13 13 13 13 12 13 11 13 13 12 11 10 10 7 8 8 11 10 10 8 9 10 5 7 7 7 9 8 7 8 9 8 8 7 6 6
13 14 13 13 13 13 11 9 9 10 11 10 12 13 14 13 12 13 11 10 9 9 8 7 11 10 10 10 10 10 9 10 8 9 5 8 7 9 8 7 8 7 6 5 5
13 13 13 13 14 13 11 10 10 10 9 11 12 12 12 11 12 12 12 9 10 10 10 10 7 11 9 9 9 8 9 7 6 5 8 9 9 7 7 6 7 6 5 5 4
13 13 13 14 13 13 8 9 10 9 8 9 10 11 11 11 11 11 11 9 9 9 10 9 9 9 10 8 10 7 8 8 8 7 7 6 7 8 6 5 6 6 5 5 4
11 10 13 14 12 12 9 10 9 9 9 10 10 10 10 10 10 11 11 10 8 8 8 8 7 6 9 9 8 8 8 8 6 8 5 5 5 7 6 6 6 6 5 5 4
10 11 13 13 10 10 9 10 9 10 9 10 10 9 10 9 8 10 9 8 8 8 7 7 6 5 9 8 8 8 9 9 8 7 6 5 7 6 7 6 6 5 5 5 4
10 8 11 12 10 11 10 11 10 8 9 8 9 8 9 9 9 8 9 8 7 7 6 6 6 6 6 8 8 7 8 8 7 6 6 7 8 6 6 4 4 4 4 4 4
9 9 8 9 9 10 9 10 11 10 8 8 9 9 8 8 9 9 9 9 9 6 6 6 4 5 6 6 6 5 6 6 6 6 5 6 7 7 3 3 4 4 3 3 3
8 8 8 9 8 9 7 10 10 9 9 9 8 8 8 7 8 7 7 7 7 6 6 6 3 3 3 5 5 4 5 5 5 5 6 6 5 3 3 3 3 2 2 2 3
7 7 7 6 5 7 8 9 8 8 7 6 6 6 5 6 6 5 5 5 6 5 5 5 3 1 1 3 3 4 3 4 5 6 4 3 2 2 2 2 1 1 1 1 0
Height
1536 1532 1528 1525 1522 1519 1516 1515 1514 1514 1514 1515 1515 1515 1515 1514 1513 1513 1511 1513 1509 1508 1509 1507 1509 1510 1510 1510 1509 1509 1511 1514 1514 1511 1518 1518 1517 1517 1518 1518 1518 1519 1520 1521 1521
1536 1533 1529 1526 1523 1520 1518 1516 1516 1515 1515 1516 1516 1516 1516 1515 1513 1513 1516 1514 1511 1509 1508 1509 1510 1509 1510 1510 1510 1510 1512 1515 1514 1515 1517 1517 1517 1518 1519 1517 1516 1517 1520 1521 1522
1538 1534 1530 1527 1524 1521 1519 1518 1517 1517 1516 1517 1516 1516 1516 1515 1517 1520 1518 1515 1512 1511 1510 1509 1510 1510 1509 1511 1512 1510 1514 1514 1517 1517 1518 1517 1516 1517 1516 1513 1514 1517 1519 1520 1522
1539 1535 1531 1528 1525 1522 1521 1520 1519 1518 1517 1517 1517 1518 1518 1518 1524 1520 1518 1516 1513 1511 1511 1511 1511 1510 1509 1509 1509 1513 1516 1515 1516 1517 1516 1516 1515 1514 1513 1513 1513 1514 1514 1516 1519
1539 1535 1532 1529 1526 1524 1522 1521 1520 1520 1519 1519 1519 1520 1520 1521 1523 1521 1519 1517 1514 1513 1513 1514 1513 1511 1510 1512 1511 1511 1513 1515 1517 1516 1516 1516 1514 1513 1512 1513 1514 1516 1517 1518 1518
1540 1536 1533 1530 1527 1525 1523 1522 1521 1521 1520 1521 1521 1521 1521 1524 1523 1521 1519 1517 1516 1514 1513 1511 1515 1516 1516 1517 1515 1517 1516 1516 1517 1516 1516 1517 1516 1515 1511 1511 1514 1517 1518 1518 1519
1542 1538 1534 1531 1528 1526 1524 1523 1523 1522 1522 1523 1523 1523 1524 1527 1524 1522 1521 1520 1518 1517 1517 1515 1514 1514 1517 1517 1519 1519 1518 1517 1517 1517 1516 1515 1511 1513 1514 1514 1515 1517 1518 1519 1520
1543 1539 1535 1532 1529 1527 1526 1524 1523 1524 1524 1525 1525 1524 1527 1527 1525 1524 1523 1521 1520 1518 1516 1516 1516 1515 1515 1517 1517 1518 1517 1518 1517 1517 1516 1517 1517 1512 1514 1516 1517 1516 1517 1518 1520
1544 1540 1536 1534 1530 1527 1526 1525 1525 1525 1525 1525 1526 1526 1530 1528 1528 1526 1523 1522 1519 1517 1517 1516 1516 1519 1518 1517 1517 1514 1521 1513 1521 1520 1520 1518 1517 1512 1511 1512 1513 1515 1514 1514 1517
1545 1542 1538 1535 1532 1529 1527 1527 1528 1527 1528 1528 1529 1531 1532 1532 1529 1526 1524 1523 1521 1520 1520 1518 1516 1515 1518 1525 1537 1528 1521 1517 1518 1522 1520 1521 1519 1510 1509 1509 1509 1509 1510 1513 1514
1547 1543 1540 1536 1533 1531 1528 1528 1532 1533 1530 1535 1536 1535 1534 1532 1531 1529 1525 1524 1524 1522 1522 1520 1524 1531 1529 1528 1529 1529 1527 1525 1514 1519 1520 1515 1513 1509 1510 1511 1507 1506 1508 1512 1514
1549 1545 1541 1538 1535 1532 1529 1528 1530 1535 1537 1537 1536 1536 1534 1532 1532 1531 1528 1527 1526 1527 1524 1527 1533 1530 1528 1528 1527 1526 1527 1524 1517 1519 1521 1514 1515 1512 1512 1512 1508 1507 1509 1512 1518
1550 1546 1542 1539 1536 1534 1532 1532 1533 1535 1537 1539 1537 1536 1536 1535 1535 1532 1530 1529 1529 1528 1530 1531 1536 1534 1531 1527 1527 1521 1522 1527 1529 1524 1515 1520 1515 1513 1513 1514 1513 1513 1515 1518 1519
1551 1546 1543 1539 1539 1536 1534 1535 1535 1536 1538 1544 1540 1540 1539 1535 1536 1535 1533 1535 1530 1533 1532 1531 1533 1533 1532 1530 1531 1531 1530 1529 1527 1528 1529 1512 1536 1513 1513 1516 1517 1519 1520 1524 1526
1552 1547 1543 1540 1540 1537 1538 1535 1535 1537 1554 1546 1545 1544 1542 1542 1541 1538 1536 1535 1537 1537 1536 1536 1536 1537 1533 1534 1533 1531 1529 1528 1528 1529 1524 1512 1526 1512 1512 1517 1519 1522 1525 1527 1529
1554 1550 1545 1542 1539 1538 1535 1534 1536 1540 1558 1547 1547 1546 1543 1543 1542 1539 1537 1537 1537 1537 1535 1537 1537 1536 1538 1535 1534 1532 1532 1527 1530 1533 1543 1513 1522 1522 1515 1516 1518 1522 1525 1527 1528
1555 1550 1546 1544 1541 1537 1535 1536 1541 1555 1549 1553 1553 1550 1547 1546 1543 1542 1541 1543 1548 1551 1543 1536 1537 1538 1538 1538 1538 1537 1538 1544 1546 1552 1538 1520 1533 1522 1522 1522 1522 1524 1526 1528 1529
1555 1551 1548 1545 1541 1537 1536 1537 1557 1555 1555 1555 1553 1550 1549 1549 1546 1544 1544 1547 1547 1547 1553 1553 1549 1538 1542 1541 1542 1539 1538 1558 1554 1548 1541 1522 1529 1528 1524 1526 1528 1530 1530 1531 1530
1555 1551 1548 1544 1541 1539 1538 1553 1568 1564 1564 1562 1553 1550 1547 1549 1549 1543 1547 1553 1555 1553 1559 1559 1542 1538 1539 1541 1544 1538 1541 1538 1543 1533 1549 1525 1525 1524 1525 1527 1530 1532 1532 1532 1530
1554 1551 1549 1547 1544 1542 1542 1562 1565 1566 1565 1562 1559 1556 1557 1556 1554 1552 1549 1557 1556 1555 1553 1552 1558 1536 1541 1543 1545 1544 1541 1545 1550 1556 1531 1513 1510 1522 1524 1529 1531 1533 1533 1531 1529
1555 1552 1552 1549 1547 1545 1558 1564 1563 1565 1565 1564 1563 1561 1560 1560 1557 1554 1553 1560 1560 1558 1555 1553 1552 1544 1537 1539 1535 1544 1544 1540 1537 1539 1539 1536 1525 1520 1525 1528 1530 1531 1531 1530 1528
1556 1556 1554 1551 1551 1554 1562 1562 1564 1565 1566 1567 1566 1564 1565 1563 1561 1557 1556 1557 1561 1561 1559 1555 1553 1551 1535 1530 1533 1533 1533 1535 1544 1535 1540 1542 1534 1523 1524 1525 1527 1529 1528 1528 1527
1559 1557 1555 1552 1558 1561 1564 1564 1564 1564 1565 1564 1564 1564 1563 1564 1567 1558 1558 1563 1560 1559 1560 1561 1556 1557 1533 1536 1535 1535 1533 1534 1535 1535 1538 1540 1523 1523 1524 1525 1525 1526 1526 1525 1524
1563 1562 1558 1556 1559 1561 1562 1562 1564 1566 1566 1565 1564 1566 1565 1562 1561 1562 1560 1559 1562 1560 1558 1560 1557 1554 1548 1536 1536 1535 1531 1531 1534 1535 1528 1524 1519 1524 1525 1528 1526 1525 1524 1523 1521
1565 1565 1564 1563 1562 1564 1565 1564 1562 1564 1566 1566 1564 1564 1566 1567 1564 1558 1558 1559 1558 1559 1560 1558 1556 1550 1542 1537 1534 1531 1531 1530 1530 1524 1531 1520 1521 1520 1526 1525 1523 1522 1522 1521 1518
1567 1565 1565 1564 1563 1564 1565 1563 1560 1561 1563 1563 1564 1564 1565 1563 1563 1561 1560 1560 1559 1559 1559 1555 1557 1552 1545 1536 1535 1532 1527 1524 1525 1526 1522 1522 1523 1529 1527 1526 1525 1524 1523 1520 1516
1562 1563 1564 1564 1564 1564 1561 1559 1561 1561 1563 1563 1564 1566 1565 1561 1558 1555 1556 1558 1557 1559 1559 1558 1559 1563 1553 1543 1539 1531 1532 1527 1520 1518 1526 1529 1534 1532 1532 1530 1527 1523 1521 1517 1514
Wind_Speed
23 24 24 22 20 17 14 12 9 7 6 5 5 8 10 15 20 13 16 16 15 10 6 12 8 6 6 5 6 5 3 5 4 4 4 4 6 3 4 5 1 3 5 6 4
23 24 24 21 20 17 14 11 9 7 6 5 5 4 4 8 10 18 17 13 11 7 6 7 3 4 2 3 3 4 3 5 5 8 5 6 3 6 5 4 5 6 3 3 4
23 24 24 21 19 15 13 10 8 7 7 6 4 3 3 4 6 12 14 12 12 7 6 5 4 4 3 4 6 6 3 6 7 7 5 3 2 1 4 2 9 9 4 4 2
23 23 23 20 18 14 12 10 8 7 6 6 6 7 8 8 3 11 12 11 10 8 9 7 4 3 2 3 1 5 6 6 3 2 2 3 5 5 8 4 3 4 5 3 2
23 23 22 20 18 14 11 9 7 6 4 5 8 8 8 8 5 10 10 10 9 12 9 8 7 6 3 4 2 6 5 3 2 1 4 5 8 6 12 10 3 3 2 3 2
24 25 23 19 18 13 11 9 8 7 6 6 7 7 6 4 7 10 8 10 10 8 10 6 5 6 4 6 6 3 2 4 2 1 5 4 7 7 3 4 8 4 3 1 3
25 25 22 21 17 12 10 8 6 7 11 13 12 12 12 5 7 10 9 8 10 9 7 7 6 4 4 4 2 1 3 4 5 1 2 8 4 5 3 5 8 6 5 3 4
26 25 22 21 18 12 9 11 6 5 5 5 8 9 5 9 11 11 8 6 7 7 5 5 5 5 3 1 3 4 3 3 3 4 2 4 3 7 4 4 6 10 10 5 3
27 26 23 21 18 12 5 14 9 9 7 5 7 6 3 8 13 14 11 8 5 6 6 5 5 2 1 3 3 4 3 3 3 2 4 2 4 7 7 7 9 11 11 10 11
28 26 23 19 19 13 5 10 14 5 6 7 6 3 6 6 10 17 13 6 6 8 7 3 2 2 5 6 2 4 4 6 5 3 4 7 10 6 8 10 10 12 12 13 16
29 27 23 15 21 15 5 5 2 4 20 9 5 4 6 10 5 17 12 8 8 4 4 5 4 6 7 5 5 6 7 8 5 5 3 6 7 5 8 7 7 3 8 10 21
30 28 24 18 18 17 8 5 7 7 7 11 9 9 9 9 6 18 12 4 7 5 6 3 5 6 3 2 4 5 7 6 3 3 4 6 7 6 6 4 8 11 21 20 16
30 28 25 19 9 15 15 11 9 6 1 5 8 6 8 7 4 12 16 5 4 5 8 5 4 4 4 6 6 6 1 4 4 9 8 6 3 7 6 8 17 23 22 20 17
32 30 24 20 8 17 14 6 3 3 3 7 4 6 7 4 1 10 14 7 0 5 5 3 2 4 6 3 5 4 6 5 7 4 3 2 3 5 8 7 10 19 20 16 14
31 31 25 22 13 18 13 5 3 3 3 4 5 7 10 6 9 8 11 5 5 5 3 2 5 5 5 3 4 3 5 7 6 5 5 4 2 4 9 8 8 15 12 13 13
28 28 20 22 22 19 13 2 3 2 1 3 4 9 6 11 4 11 5 6 3 3 3 3 1 2 5 5 3 8 7 7 4 3 2 2 3 3 4 5 7 12 14 14 13
26 27 17 23 23 17 9 2 2 5 3 4 4 6 7 5 3 7 4 6 5 6 6 3 3 3 1 5 1 4 5 3 3 2 3 5 3 1 8 8 12 11 14 14 12
24 23 20 25 20 16 5 1 9 4 5 2 3 8 3 6 2 6 7 4 10 7 4 3 5 0 2 3 2 4 3 3 4 2 4 3 4 2 8 13 14 12 13 11 11
22 19 21 27 18 12 4 6 3 5 4 9 6 4 2 2 2 4 6 4 4 8 5 6 3 3 2 2 2 2 1 3 3 4 2 4 4 3 7 7 10 11 10 11 12
23 14 19 23 14 10 5 5 3 3 5 4 5 4 5 8 8 8 5 3 3 4 7 3 6 1 3 2 3 3 4 2 1 3 4 4 4 2 8 6 6 6 8 9 10
17 7 15 18 9 10 4 3 3 2 3 4 5 5 6 4 5 5 4 4 6 6 8 4 3 2 2 6 2 2 3 4 1 3 3 4 1 4 7 6 3 4 5 7 8
11 4 12 11 7 5 2 2 1 2 2 2 1 3 4 4 4 4 3 4 6 6 5 2 4 4 10 4 5 0 4 5 2 2 2 1 4 6 6 8 5 2 3 7 11
11 6 8 8 3 2 2 3 1 0 2 1 1 1 1 2 4 3 4 3 2 4 4 6 4 5 3 2 2 2 1 4 5 3 5 4 4 6 9 6 9 8 10 12 14
6 4 4 7 7 3 3 3 2 0 1 1 0 2 2 4 5 3 4 3 3 3 1 2 4 5 8 10 12 10 10 5 8 6 10 13 13 7 3 5 8 9 10 14 15
3 2 2 3 4 5 2 1 1 3 2 2 4 2 3 3 7 4 1 6 8 5 2 3 5 7 12 13 12 15 15 11 15 17 12 13 13 8 6 6 11 15 18 20 22
4 2 2 2 2 1 3 4 3 3 3 4 2 3 2 4 5 10 9 4 7 6 3 2 4 8 13 14 11 11 12 12 12 12 16 14 13 6 10 13 15 17 20 22 22
8 9 4 2 1 1 3 2 2 4 1 1 3 1 5 9 10 14 13 14 15 8 6 3 3 6 5 10 13 7 4 5 1 2 3 4 4 10 7 12 15 21 25 19 20
Wind_Direction
11 12 11 14 14 16 19 29 44 60 72 77 90 105 82 59 43 36 27 6 6 16 33 31 29 11 27 13 8 325 304 75 33 15 85 62 342 89 325 304 355 4 16 84 38
13 13 12 13 14 16 26 35 48 66 77 74 91 127 93 62 72 25 16 6 7 25 47 77 42 13 85 24 1 359 40 42 17 27 52 93 334 13 335 291 259 159 195 34 28
14 13 13 14 14 19 26 40 53 65 77 76 74 95 126 50 75 4 5 10 16 34 44 51 19 16 101 59 4 3 70 132 70 61 31 18 268 11 295 259 70 25 114 141 13
16 14 12 13 13 21 25 37 49 63 76 79 82 90 75 43 46 346 7 16 25 32 35 14 333 270 75 72 91 140 48 7 128 94 350 338 310 271 237 254 145 155 189 181 132
15 15 10 11 14 21 27 34 46 65 64 92 99 100 79 50 28 4 16 15 25 41 30 19 20 335 44 94 13 82 123 125 136 220 281 300 262 256 276 247 190 166 143 140 159
15 13 13 17 15 21 32 36 53 63 82 94 100 75 72 76 13 7 19 18 25 45 35 74 36 7 27 23 1 83 68 111 171 208 273 303 301 318 60 191 166 153 137 141 139
18 15 17 16 14 22 32 25 48 84 88 92 100 83 76 52 25 11 10 23 27 34 35 41 76 46 332 134 27 127 232 186 189 335 316 321 269 219 267 146 164 174 138 106 144
19 18 16 15 15 23 36 27 65 77 96 94 93 78 75 33 26 7 11 17 4 19 15 33 47 58 62 139 213 248 237 227 93 312 118 350 320 100 116 182 235 210 208 148 159
19 17 19 17 16 19 70 38 84 78 86 92 82 84 47 17 9 10 8 359 347 357 14 24 53 60 237 249 222 188 280 26 153 66 329 259 321 135 194 208 241 264 264 194 154
19 18 16 20 19 18 82 83 72 75 91 67 62 87 23 336 360 8 355 353 354 357 338 356 262 234 33 18 20 336 346 353 303 70 356 299 273 295 23 353 312 279 261 243 152
15 16 13 11 17 17 51 98 53 64 59 58 44 58 358 352 5 352 1 15 339 303 7 5 36 47 39 21 338 315 314 295 312 94 337 283 306 333 33 353 305 238 230 141 107
12 9 11 9 19 21 30 83 108 122 77 50 49 27 13 19 357 350 19 40 357 8 315 289 67 46 326 264 295 289 292 316 330 61 315 284 310 90 75 5 33 98 97 97 103
10 6 5 7 14 25 41 77 112 112 87 24 33 21 16 30 19 354 10 8 19 18 351 55 37 332 327 320 349 306 61 15 298 322 277 297 247 139 118 92 72 74 81 75 66
6 7 6 8 11 12 26 34 139 145 132 348 1 351 354 353 3 1 9 17 160 28 347 53 79 338 321 321 4 309 16 325 301 354 256 95 269 148 139 123 103 91 72 56 41
4 2 4 14 12 10 356 4 142 129 82 7 8 345 347 12 336 10 4 15 31 357 309 15 360 352 292 27 345 309 335 283 289 277 292 199 166 153 131 137 123 106 85 67 39
359 359 6 8 1 358 358 49 122 72 346 38 349 357 357 32 20 345 346 11 354 300 213 80 151 296 355 313 258 311 298 262 243 261 326 191 123 184 149 135 119 85 63 55 39
357 357 9 3 356 354 0 79 46 69 218 24 352 342 310 0 346 7 343 44 31 7 27 310 152 107 320 301 237 308 316 325 343 351 276 55 27 63 74 56 66 62 54 48 35
355 357 12 3 359 356 14 103 63 312 22 357 320 302 30 0 63 336 348 46 40 355 311 352 333 103 43 30 286 299 8 158 275 297 290 129 258 150 100 85 80 56 51 39 28
353 359 9 5 358 1 30 50 43 19 343 342 291 300 115 105 259 310 87 39 50 18 15 3 291 130 57 341 358 1 259 357 305 260 81 222 95 129 124 93 68 54 38 27 18
353 355 9 2 7 11 64 95 85 17 343 297 3 31 345 349 358 359 33 353 22 45 3 325 299 34 111 281 234 262 334 360 291 291 278 272 166 187 169 99 71 48 27 16 9
353 0 360 358 18 47 74 101 122 95 26 4 5 329 356 6 317 329 35 75 22 344 328 288 229 296 120 196 208 193 257 221 238 255 253 320 352 68 104 96 31 37 27 6 359
6 345 355 8 43 40 59 35 154 71 43 68 317 339 347 324 306 336 2 57 24 322 320 62 283 271 255 90 69 17 280 300 208 301 258 231 261 120 136 164 171 325 348 343 335
346 317 6 19 66 79 153 130 30 186 84 40 110 109 109 295 322 6 14 106 12 324 14 352 272 307 306 69 76 160 312 257 294 342 231 272 265 169 182 118 51 23 359 344 339
351 338 344 49 67 2 22 95 136 35 244 205 241 212 288 262 181 295 308 122 236 232 237 321 265 251 258 285 320 293 280 259 249 247 264 248 276 176 195 41 23 1 342 340 332
344 347 321 344 48 38 32 17 223 201 223 247 193 232 3 306 309 251 52 309 268 180 224 233 258 265 271 289 290 274 278 268 254 257 252 275 282 323 47 13 2 359 348 336 326
280 263 326 324 312 296 156 206 226 145 193 175 233 45 316 230 270 291 314 306 262 149 232 175 279 316 290 274 288 292 273 270 273 281 270 284 289 30 22 10 356 344 327 317 317
241 245 241 234 282 169 211 214 239 131 226 78 96 360 262 261 273 276 278 272 276 296 300 280 338 5 283 347 317 278 15 357 221 205 56 345 17 13 360 353 334 320 321 334 351